Date String (YYYY-MM-DD hh:mm:ss) UTC,Instrument flags,absolute air pressure of the measurement (hPa),sample flow rate (lpm),inlet stack bypass flow (lpm),air temperature of the measurement (°C),ambient temperature measured by the external sensor (°C),aerosol sample conditioner tube jacket temperature (°C),OPC LED temperature (°C),internal box temperature (°C),relative humidity of the measurement (%),span deviation,mass concentration of particles derived from Lorenz-Mie calculation of OPC scattering (μg/m³),mass concentration of particles derived from Lorenz-Mie calculation of OPC scattering (μg/m³),mass concentration of particles derived from Lorenz-Mie calculation of OPC scattering (μg/m³)
DateTimeUTC,F1_M11,P_M11,Q1_M11,Q2_M11,T1_M11,T2_M11,T3_M11,T4_M11,T5_M11,U1_M11,ZSPAN_M11,X0_M11,X2_M11,X1_M11
2023-07-14 07:00:00,SystemResetWarning,0829.2,4.99,000.00,029.2,027.0,000.0,037.7,030.7,18.9,0000.0,0011.27,0003.38,0002.69
2023-07-14 07:01:00,SystemResetWarning,0829.2,4.99,000.00,029.2,027.2,000.0,037.7,030.8,18.7,0000.0,0011.23,0003.39,0002.68
2023-07-14 07:02:00,SystemResetWarning,0829.2,5.00,000.00,029.2,027.5,000.0,037.7,030.8,18.8,0000.0,0010.58,0003.38,0002.68
2023-07-14 07:03:00,SystemResetWarning,0829.2,5.00,000.00,029.3,027.7,000.0,037.7,030.9,19.0,0000.0,0010.14,0003.38,0002.68
2023-07-14 07:04:00,SystemResetWarning,0829.2,5.00,000.00,029.3,027.9,000.0,037.7,031.0,19.8,0000.0,0009.99,0003.34,0002.67
2023-07-14 07:05:00,SystemResetWarning,0829.2,5.01,000.00,029.3,028.0,000.0,037.8,031.0,20.4,0000.0,0009.98,0003.31,0002.67
2023-07-14 07:06:00,SystemResetWarning,0829.2,5.01,000.00,029.4,028.1,000.0,037.8,031.1,19.7,0000.0,0009.73,0003.27,0002.66
2023-07-14 07:07:00,SystemResetWarning,0829.3,4.99,000.00,029.4,028.3,000.0,037.8,031.1,19.1,0000.0,0009.79,0003.27,0002.67
2023-07-14 07:08:00,SystemResetWarning,0829.4,4.99,000.00,029.5,028.3,000.0,037.8,031.1,19.1,0000.0,0009.64,0003.27,0002.67
2023-07-14 07:09:00,SystemResetWarning,0829.4,4.99,000.00,029.5,027.1,000.0,037.7,031.0,19.1,0000.0,0009.24,0003.26,0002.67
2023-07-14 07:10:00,SystemResetWarning,0829.2,5.01,000.00,029.4,025.6,000.0,037.6,030.8,18.9,0000.0,0008.88,0003.25,0002.66
2023-07-14 07:11:00,SystemResetWarning,0829.2,5.01,000.00,029.3,025.5,000.0,037.6,030.7,18.7,0000.0,0007.98,0003.24,0002.65
2023-07-14 07:12:00,SystemResetWarning,0829.3,4.99,000.00,029.2,025.8,000.0,037.6,030.5,18.9,0000.0,0007.70,0003.21,0002.65
2023-07-14 07:13:00,SystemResetWarning,0829.3,5.00,000.00,029.2,026.2,000.0,037.7,030.6,19.1,0000.0,0007.99,0003.24,0002.66
2023-07-14 07:14:00,SystemResetWarning,0829.3,5.00,000.00,029.2,026.6,000.0,037.7,030.7,19.1,0000.0,0007.83,0003.24,0002.67
2023-07-14 07:15:00,SystemResetWarning,0829.3,5.00,000.00,029.2,026.9,000.0,037.7,030.7,19.9,0000.0,0007.39,0003.24,0002.66
2023-07-14 07:16:00,SystemResetWarning,0829.3,5.00,000.00,029.2,027.2,000.0,037.7,030.8,20.2,0000.0,0007.19,0003.25,0002.66
2023-07-14 07:17:00,SystemResetWarning,0829.3,5.00,000.00,029.3,027.5,000.0,037.7,030.9,20.4,0000.0,0007.31,0003.27,0002.66
2023-07-14 07:18:00,SystemResetWarning,0829.3,5.00,000.00,029.3,027.7,000.0,037.7,030.9,20.5,0000.0,0007.29,0003.26,0002.67
2023-07-14 07:19:00,SystemResetWarning,0829.4,5.00,000.00,029.3,027.9,000.0,037.8,031.0,20.6,0000.0,0007.32,0003.27,0002.67
2023-07-14 07:20:00,SystemResetWarning,0829.4,5.00,000.00,029.3,028.0,000.0,037.8,031.0,20.9,0000.0,0007.37,0003.30,0002.68
2023-07-14 07:21:00,SystemResetWarning,0829.3,5.00,000.00,029.4,028.1,000.0,037.8,031.1,20.9,0000.0,0007.48,0003.35,0002.71
2023-07-14 07:22:00,SystemResetWarning,0829.4,5.00,000.00,029.4,028.2,000.0,037.8,031.1,21.3,0000.0,0007.63,0003.39,0002.73
2023-07-14 07:23:00,SystemResetWarning,0829.3,5.00,000.00,029.5,028.3,000.0,037.9,031.2,21.0,0000.0,0007.67,0003.42,0002.75
2023-07-14 07:24:00,SystemResetWarning,0829.4,5.00,000.00,029.5,028.0,000.0,037.8,031.2,20.9,0000.0,0007.03,0003.42,0002.76
2023-07-14 07:25:00,SystemResetWarning,0829.3,5.00,000.00,029.5,026.2,000.0,037.7,030.9,20.9,0000.0,0007.02,0003.46,0002.80
2023-07-14 07:26:00,SystemResetWarning,0829.3,5.01,000.00,029.4,025.5,000.0,037.6,030.7,21.1,0000.0,0007.10,0003.51,0002.86
2023-07-14 07:27:00,SystemResetWarning,0829.2,5.01,000.00,029.3,025.6,000.0,037.7,030.6,21.4,0000.0,0007.01,0003.54,0002.91
2023-07-14 07:28:00,SystemResetWarning,0829.3,4.99,000.00,029.2,026.0,000.0,037.7,030.6,21.7,0000.0,0007.49,0003.55,0002.96
2023-07-14 07:29:00,SystemResetWarning,0829.3,5.00,000.00,029.2,026.4,000.0,037.7,030.6,21.7,0000.0,0008.10,0003.60,0003.04
2023-07-14 07:30:00,SystemResetWarning,0829.4,5.00,000.00,029.2,026.7,000.0,037.7,030.7,21.7,0000.0,0008.82,0003.64,0003.10
2023-07-14 07:31:00,SystemResetWarning,0829.3,5.00,000.00,029.2,027.1,000.0,037.7,030.8,21.7,0000.0,0008.98,0003.68,0003.15
2023-07-14 07:32:00,SystemResetWarning,0829.4,5.00,000.00,029.3,027.3,000.0,037.8,030.8,21.6,0000.0,0008.90,0003.69,0003.19
2023-07-14 07:33:00,SystemResetWarning,0829.3,5.00,000.00,029.3,027.5,000.0,037.8,030.9,21.5,0000.0,0008.88,0003.70,0003.23
2023-07-14 07:34:00,SystemResetWarning,0829.3,5.00,000.00,029.3,027.7,000.0,037.8,030.9,21.3,0000.0,0009.41,0003.77,0003.27
2023-07-14 07:35:00,SystemResetWarning,0829.4,4.99,000.00,029.3,027.9,000.0,037.8,031.0,21.2,0000.0,0009.44,0003.81,0003.31
2023-07-14 07:36:00,SystemResetWarning,0829.3,4.99,000.00,029.4,028.0,000.0,037.8,031.0,21.2,0000.0,0009.75,0003.82,0003.34
2023-07-14 07:37:00,SystemResetWarning,0829.4,5.01,000.00,029.4,028.2,000.0,037.8,031.1,21.3,0000.0,0010.32,0003.89,0003.38
2023-07-14 07:38:00,SystemResetWarning,0829.4,5.01,000.00,029.4,028.2,000.0,037.8,031.1,21.0,0000.0,0010.37,0003.93,0003.42
2023-07-14 07:39:00,SystemResetWarning,0829.4,5.01,000.00,029.5,028.3,000.0,037.9,031.2,20.8,0000.0,0010.01,0003.97,0003.46
2023-07-14 07:40:00,SystemResetWarning,0829.3,5.00,000.00,029.5,028.4,000.0,037.9,031.2,20.4,0000.0,0009.69,0004.04,0003.49
2023-07-14 07:41:00,SystemResetWarning,0829.3,4.99,000.00,029.6,028.5,000.0,037.9,031.2,19.8,0000.0,0009.36,0004.06,0003.52
2023-07-14 07:42:00,SystemResetWarning,0829.3,5.00,000.00,029.6,027.4,000.0,037.9,031.1,19.9,0000.0,0009.23,0004.05,0003.51
2023-07-14 07:43:00,SystemResetWarning,0829.2,5.01,000.00,029.5,025.7,000.0,037.7,030.9,19.8,0000.0,0009.34,0004.09,0003.51
2023-07-14 07:44:00,SystemResetWarning,0829.2,5.02,000.00,029.4,025.5,000.0,037.7,030.7,19.7,0000.0,0010.02,0004.12,0003.53
2023-07-14 07:45:00,SystemResetWarning,0829.1,4.99,000.00,029.3,025.8,000.0,037.7,030.6,19.4,0000.0,0009.79,0004.09,0003.53
2023-07-14 07:46:00,SystemResetWarning,0829.1,5.00,000.00,029.3,026.2,000.0,037.8,030.7,19.1,0000.0,0009.69,0004.10,0003.53
2023-07-14 07:47:00,SystemResetWarning,0829.1,5.00,000.00,029.3,026.5,000.0,037.8,030.7,19.0,0000.0,0009.61,0004.09,0003.52
2023-07-14 07:48:00,SystemResetWarning,0829.1,5.01,000.00,029.3,026.9,000.0,037.8,030.8,19.0,0000.0,0009.56,0004.05,0003.49
2023-07-14 07:49:00,SystemResetWarning,0829.1,5.00,000.00,029.3,027.2,000.0,037.8,030.8,19.0,0000.0,0009.81,0003.99,0003.46
2023-07-14 07:50:00,SystemResetWarning,0829.1,5.00,000.00,029.3,027.4,000.0,037.8,030.9,19.3,0000.0,0010.31,0003.98,0003.43
2023-07-14 07:51:00,SystemResetWarning,0829.1,5.00,000.00,029.3,027.7,000.0,037.8,030.9,19.3,0000.0,0010.72,0003.92,0003.39
2023-07-14 07:52:00,SystemResetWarning,0829.1,5.00,000.00,029.4,027.8,000.0,037.8,031.0,18.5,0000.0,0010.55,0003.87,0003.35
2023-07-14 07:53:00,SystemResetWarning,0829.1,5.00,000.00,029.4,028.0,000.0,037.9,031.0,18.1,0000.0,0010.74,0003.83,0003.31
2023-07-14 07:54:00,SystemResetWarning,0829.1,5.00,000.00,029.4,028.1,000.0,037.9,031.1,18.2,0000.0,0010.88,0003.78,0003.28
2023-07-14 07:55:00,SystemResetWarning,0829.1,5.00,000.00,029.5,028.2,000.0,037.9,031.1,18.2,0000.0,0010.54,0003.71,0003.24
2023-07-14 07:56:00,SystemResetWarning,0829.1,5.00,000.00,029.5,028.3,000.0,037.9,031.2,18.2,0000.0,0009.79,0003.66,0003.20
2023-07-14 07:57:00,SystemResetWarning,0829.1,5.00,000.00,029.5,028.4,000.0,037.9,031.2,18.0,0000.0,0009.62,0003.60,0003.16
2023-07-14 07:58:00,SystemResetWarning,0829.1,4.98,000.00,029.5,027.3,000.0,037.9,031.1,17.9,0000.0,0009.51,0003.54,0003.13
2023-07-14 07:59:00,SystemResetWarning,0829.1,5.01,000.00,029.5,025.7,000.0,037.7,030.8,18.3,0000.0,0009.52,0003.55,0003.10
